Regional Weather Roundup
Issued by NWS

Home | Current Version | Previous Version | Text Only | Print | Product List | Glossary On
Versions: 1 2 3 4 5 6 7 8 9 10 11 12 13 14 15 16 17 18 19 20 21 22 23 24 25 26 27
000
ASUS45 KBOU 240507
RWRCO

WEATHER ROUNDUP FOR COLORADO
NATIONAL WEATHER SERVICE DENVER/BOULDER CO
1100 PM MDT TUE AUG 23 2016

NOTE: "FAIR" INDICATES FEW OR NO CLOUDS BELOW 12000 FEET WITH NO
SIGNIFICANT WEATHER AND/OR OBSTRUCTIONS TO VISIBILITY.

COZ001>005-013-030-031-240600-
...NORTHWEST COLORADO...

CITY           SKY/WX    TMP DP  RH WIND       PRES   REMARKS
CRAIG          FAIR      61  42  49 E8        30.25R
HAYDEN         FAIR      55  43  62 E9        30.28S
MEEKER         FAIR      56  46  69 E5        30.27F
MOUNT WERNER   NOT AVBL
STEAMBOAT SPGS CLOUDY    54  44  69 E6        30.29R
WALDEN         FAIR      54  37  54 SE6       30.37S
$$

COZ006>008-011-240600-
...WEST CENTRAL VALLEYS...

CITY           SKY/WX    TMP DP  RH WIND       PRES   REMARKS
GRAND JUNCTION FAIR      68  48  48 SE23G29   30.19R
MONTROSE       RAIN      57  51  80 E7        30.32R
EAGLE          CLOUDY    61  45  55 CALM      30.34R
RIFLE          MOCLDY    58  54  86 N5        30.27S
DELTA          RAIN      63  54  72 NE10      30.26
NUCLA          CLOUDY    55  54  94 SE6       30.31F
$$

COZ017>023-064>068-240600-
...SOUTHWEST COLORADO...

CITY           SKY/WX    TMP DP  RH WIND       PRES   REMARKS
DURANGO        CLOUDY    53  49  86 NW3       30.30R
CORTEZ         CLOUDY    54  52  93 CALM      30.28R
PAGOSA SPRINGS FAIR      49  48  97 CALM      30.35S
TELLURIDE      CLOUDY    45  45  99 CALM      30.45S
WOLF CREEK PAS FAIR      37  36  93 S3        30.59S
$$

COZ009-010-012-014-032>034-037-058>063-240600-
...CENTRAL COLORADO...

CITY           SKY/WX    TMP DP  RH WIND       PRES   REMARKS
ASPEN          CLOUDY    51  46  83 SW7       30.39R
BUENA VISTA    CLOUDY    49  45  87 NW8       30.41F
COPPER MTN     MIX PCPN  37  34  87 N3        30.60F VSB 1/4
BERTHOUD PASS  HVY SNOW  32  19  59 E20G30    30.64S VSB<1/4 WCI  20
COTTONWOOD PAS CLOUDY    45  41  87 W6        30.49F
GUNNISON       CLOUDY    52  45  76 CALM      30.41R
KREMMLING      CLOUDY    54  43  66 N6        30.39S
LEADVILLE      LGT RAIN  41  39  93 SE5       30.49F
MONARCH PASS   FOG       36  36 100 E15       30.66S VSB<1/4
SALIDA         CLOUDY    53  49  85 CALM      30.46S
SUNLIGHT       LGT RAIN  43  39  87 SE5       30.57S
WILKERSON PASS LGT RAIN  39  36  87 S7        30.58S
$$

COZ069>075-240600-
...SAN LUIS VALLEY/SANGRE DE CRISTO MOUNTAINS...

CITY           SKY/WX    TMP DP  RH WIND       PRES   REMARKS
ALAMOSA        FAIR      50  49  96 S6        30.34R
LA VETA PASS   FOG       43  41  93 N3        30.48S VSB 1/2
SAGUACHE       CLOUDY    52  46  82 N6        30.37S
$$

COZ035-036-038>040-240600-
...NORTHERN COLORADO FRONT RANGE...

CITY           SKY/WX    TMP DP  RH WIND       PRES   REMARKS
DENVER INTL AP CLOUDY    69  42  37 W21G28    30.17F
DMNS CITY PARK   N/A     66  44  45 W10G20    30.18S
AURORA         MOCLDY    66  44  44 W10       30.20S
FRONT RANGE AP NOT AVBL
ERIE MUNI ARPT LGT RAIN  70  39  31 W14G21    30.20R
BOULDER MUN AP CLOUDY    68  41  37 W14G22    30.22R
CENTENNIAL     CLOUDY    64  43  46 W15       30.20S
BROOMFIELD     NOT AVBL
FORT COLLINS   FAIR      70  43  37 W13       30.13S
LONGMONT       FAIR      70  43  36 W9G18     30.21R
$$

COZ041-046-047-076>085-087-088-240600-
...PIKES PEAK/PALMER DIVIDE AND SOUTHERN FOOTHILLS...

CITY           SKY/WX    TMP DP  RH WIND       PRES   REMARKS
COLO. SPRINGS  LGT RAIN  60  48  64 W20       30.29R
A. F. ACADEMY  LGT RAIN  61  45  55 S12       30.29R
SCHRIEVER AFB  NOT AVBL
ELLICOTT       NOT AVBL
FALCON         CLOUDY    60  42  51 SW15G22   30.31S
FORT CARSON    NOT AVBL
LIMON          FAIR      66  41  40 N7        30.17R
MONUMENT HILL  CLOUDY    55  41  58 S8        30.32R
TRINIDAD       CLOUDY    59  53  80 W14       30.24F
$$

COZ042>045-048>051-090-091-240600-
...NORTHEAST COLORADO...

CITY           SKY/WX    TMP DP  RH WIND       PRES   REMARKS
GREELEY ARPT   FAIR      73  43  33 SW12      30.12S
AKRON          FAIR      67  35  30 CALM      30.12R
BURLINGTON     FAIR      66  39  37 NE10      30.06R
WRAY           NOT AVBL
STERLING       FAIR      64  41  42 CALM      30.07S
HOLYOKE        FAIR      63  50  63 CALM      30.05R
FORT MORGAN    FAIR      69  36  29 NW8       30.12R
$$

COZ086-089-092>099-240600-
...SOUTHEAST COLORADO...

CITY           SKY/WX    TMP DP  RH WIND       PRES   REMARKS
PUEBLO         FAIR      68  51  54 W17G24    30.17R
LA JUNTA       LGT RAIN  73  50  44 W7G22     30.14R
LAMAR          LGT RAIN  69  58  67 W5        30.05R
SPRINGFIELD      N/A     71  51  49 NW16      30.01R
$$




USA.gov is the U.S. government's official web portal to all federal, state and local government web resources and services.